{"data":{"norad_id":57748,"intl_designator":"2023-131S","name":"STARLINK-30356","alt_names":[],"object_type":"PAYLOAD","status":"ACTIVE","operator":null,"country":"US","launch_date":"2023-09-01","launch_site_code":"AFETR","launch_vehicle":null,"mission":null,"orbit_class":"UNKNOWN","rcs_meters":null,"size_class":null,"mass_kg":null,"dimensions":null,"purposes":["comms"],"wikipedia_slug":null,"has_3d_model":false,"image_url":null,"decayed_at":null,"tle_current":{"epoch":"2026-09-20T22:55:13.005696Z","epoch_age_seconds":91992,"freshness":"FRESH","line1":"1 57748U 23131S   26263.95501164  .00001829  00000+0  76005-4 0  9992","line2":"2 57748  43.0017 149.3691 0001492 265.2349  94.8332 15.27571162169785","mean_motion":15.27571162,"eccentricity":0.0001492,"inclination_deg":43.0017,"raan_deg":149.3691,"arg_perigee_deg":265.2349,"mean_anomaly_deg":94.8332,"bstar":7.6005e-5,"rev_number":16978,"period_min":94.267294108554,"perigee_km":482.0518674047,"apogee_km":484.0992532327,"semimajor_km":6861.2125603187,"source":"CELESTRAK","updated_at":"2026-09-21T09:00:33.681827Z"}}}